Location: Goudie Road
(49.9333°N, 119.0750°W)
Time: 01:41:29
(UTC-07:00)

Daily predictions for brighter satellites

Satellite Brightness Start Highest point End
(mag) Time Altitude Azimuth Time Altitude Azimuth Time Altitude Azimuth
CZ-4C R/B 4.2 00:09:39 10° NW 00:13:06 29° NNW 00:13:06 29° NNW
CENTAUR R/B 4.5 00:47:56 10° NW 00:53:57 29° N 01:00:32 10° ENE
ATLAS 2AS CENTAUR R/B 3.7 02:02:51 50° NE 02:02:51 50° NE 02:08:34 10° NE
Cosmos 2344 4.4 02:37:46 43° ESE 02:37:46 43° ESE 02:45:36 10° NE
CENTAUR R/B 3.9 02:39:26 10° NW 02:46:32 45° NNE 02:54:16 10° ESE
CZ-2D R/B 3.6 03:00:37 10° NNE 03:04:35 32° ENE 03:04:35 32° ENE
Lacrosse 5 rocket 3.8 03:12:56 23° NE 03:12:56 23° NE 03:14:41 10° NE
Cosmos 1605 Rocket 4.4 03:08:17 10° N 03:14:18 56° ENE 03:14:18 56° ENE
Resurs 1-4 Rocket 3.2 03:12:05 10° NNE 03:16:27 40° ENE 03:16:27 40° ENE
SL-16 R/B 2.9 03:15:40 10° NNW 03:21:13 50° NE 03:26:44 10° SE
Cosmos 2219 4.1 03:24:44 44° N 03:24:44 44° N 03:28:38 10° NNE
SL-16 R/B 3.0 03:26:40 55° NNW 03:26:40 55° NNW 03:31:26 10° NNW
Okean O Rocket 4.2 03:23:53 10° NE 03:26:26 15° E 03:27:48 13° ESE
ARIANE 5 R/B 3.4 03:25:46 10° NNE 03:29:34 47° NE 03:29:34 47° NE
NOSS 3-4 (A) 3.9 03:31:21 57° ESE 03:31:21 57° ESE 03:37:41 10° NE
NOSS 3-4 (C) 3.9 03:31:27 56° ESE 03:31:27 56° ESE 03:37:47 10° NE
Cosmos 2227 Rocket 2.8 03:35:15 52° E 03:35:15 52° E 03:40:27 10° NE
GEOS 3 Rocket 4.2 03:30:30 10° NE 03:34:26 54° NE 03:34:26 54° NE
Cosmos 2297 Rocket 2.9 03:43:09 44° ESE 03:43:35 45° ESE 03:48:57 10° NE
Lacrosse 5 2.4 03:51:26 53° E 03:51:26 53° E 03:55:33 10° ENE
ATLAS 2AS CENTAUR R/B 3.8 03:50:17 36° WNW 03:52:19 41° NNW 03:59:58 10° NE
Cosmos 968 Rocket 4.5 03:59:34 36° NNW 03:59:34 36° NNW 04:03:08 10° NNE
ADEOS 4.2 03:54:42 10° N 03:58:36 46° NNW 03:58:36 46° NNW
Meteor 1-13 Rocket 4.3 04:00:29 67° SSE 04:01:10 76° E 04:06:50 10° NNE
Cosmos 1346 Rocket 4.2 04:03:11 35° E 04:03:13 35° E 04:06:55 10° NNE
Cosmos 2082 3.5 04:17:46 72° SW 04:18:21 85° WNW 04:24:01 10° NNE
RESURS DK-1 2.8 04:19:16 60° NE 04:19:16 60° NE 04:22:43 10° NNE
Cosmos 2058 Rocket 3.3 04:17:17 10° N 04:21:39 65° ENE 04:23:20 35° SSE
Cosmos 1025 Rocket 3.0 04:24:17 78° NNE 04:24:17 78° NNE 04:28:20 10° N
BREEZE-M DEB (TANK) 3.5 04:26:18 83° S 04:26:18 83° S 04:33:53 10° ESE
Cosmos 1666 4.4 04:22:31 10° N 04:24:13 25° N 04:24:13 25° N
ADEOS Rocket 4.3 04:21:24 10° NNE 04:28:12 45° E 04:34:17 10° SSE
Cosmos 2173 Rocket 3.9 04:24:51 10° N 04:30:59 82° E 04:37:08 10° S
IRS-1D 4.0 04:28:11 10° N 04:33:10 45° WNW 04:33:10 45° WNW
Cosmos 1459 Rocket 4.0 04:27:52 10° N 04:34:18 88° E 04:40:37 10° S
Cosmos 1727 Rocket 3.9 04:33:49 45° SW 04:35:45 66° WNW 04:42:06 10° N
USA 215 3.7 04:30:51 10° SSE 04:36:10 37° SSW 04:36:10 37° SSW
CZ-2C R/B 3.6 04:34:46 26° S 04:37:21 82° WSW 04:42:05 10° NNW
Thor Agena Rocket 4.0 04:32:15 10° SSE 04:37:29 65° ENE 04:42:43 10° N
CENTAUR R/B 2.9 04:30:11 10° NW 04:37:51 74° SW 04:46:06 10° SSE
BREEZE-M DEB (TANK) 3.2 04:45:18 30° SE 04:45:18 30° SE 04:46:53 10° SE
CZ-4B R/B 3.5 04:39:28 10° NNE 04:44:53 64° ESE 04:50:21 10° S
CZ-2D R/B 2.5 04:40:37 10° N 04:45:32 42° WNW 04:45:54 41° WNW
Cosmos 220 Rocket 4.3 04:48:05 45° NW 04:48:05 45° NW 04:51:56 10° NNE
Meteor 1-15 Rocket 4.1 04:42:33 10° NNW 04:48:08 73° W 04:53:44 10° S
Lacrosse 5 rocket 2.7 04:48:40 27° NW 04:50:06 34° N 04:54:08 10° ENE
IRS-1C Rocket 4.1 04:45:19 10° NNE 04:50:39 87° ESE 04:54:17 21° SSW
Cosmos 2344 4.0 04:47:47 33° W 04:51:39 59° NW 05:01:16 10° NE
Cosmos 1898 Rocket 3.5 04:50:19 27° SSW 04:53:17 82° ESE 04:58:36 10° NNE
CZ-2D R/B 3.8 04:52:09 10° N 04:55:44 44° WNW 04:55:44 44° WNW
Resurs 1-4 Rocket 2.8 04:52:08 10° N 04:56:54 34° WNW 04:57:32 33° WNW
Cosmos 1726 Rocket 4.1 04:53:26 10° NNW 04:56:49 39° WNW 04:56:49 39° WNW
Cosmos 1937 Rocket 3.7 04:56:34 16° S 05:00:43 70° ESE 05:06:01 10° NNE
Okean O Rocket 1.5 04:58:55 10° N 05:03:19 69° WNW 05:05:16 32° SSW
Cosmos 2098 Rocket 3.0 04:59:29 10° N 05:03:28 84° W 05:08:35 10° S
SL-16 R/B 2.9 05:00:08 10° NW 05:06:06 31° SW 05:10:08 10° SSW
COS B Rocket 4.1 05:06:55 23° NNW 05:06:55 23° NNW 05:08:11 10° N
Meteor 2-4 Rocket 3.8 05:02:24 24° SSW 05:06:02 62° WNW 05:11:57 10° N
Meteor 2-9 Rocket 4.5 05:02:15 10° NNW 05:07:38 45° W 05:13:05 10° SSW
ARIANE 5 R/B 3.7 05:05:38 10° N 05:09:34 23° WNW 05:09:54 23° WNW
SL-16 R/B 4.1 05:11:47 16° WNW 05:11:47 16° WNW 05:13:48 10° NW
NOSS 2-2 (E) 4.4 05:07:53 18° SSW 05:10:52 51° SE 05:15:51 10° NE
PSLV R/B 3.9 05:08:02 10° NNE 05:12:21 65° E 05:16:37 10° S
CZ-4B R/B 3.0 05:09:08 10° N 05:13:34 72° WNW 05:17:04 17° SSW
ERS-2 4.1 05:11:06 10° NNW 05:12:44 17° NW 05:12:44 17° NW
Cosmos 2084 Rocket 3.0 05:11:46 23° NW 05:14:06 80° SW 05:18:05 10° SE
Cosmos 1602 Rocket 3.9 05:09:43 10° S 05:14:06 65° E 05:18:28 10° NNE
Cosmos 2228 3.1 05:10:59 10° NNW 05:15:15 51° W 05:19:29 10° S
Cosmos 1892 Rocket 3.9 05:16:14 30° SW 05:18:01 46° WNW 05:22:21 10° N
Cosmos 2227 Rocket 3.0 05:17:06 26° W 05:19:16 34° NW 05:24:26 10° NNE
UNKNOWN OBJECT B 4.3 05:17:08 10° NNW 05:19:58 21° WNW 05:19:58 21° WNW
Meteor 1-23 Rocket 4.4 05:17:18 19° SW 05:21:10 51° WNW 05:26:48 10° N
NOSS 3-4 (A) 4.1 05:18:48 24° W 05:22:23 46° NNW 05:28:50 10° NE
NOSS 3-4 (C) 4.1 05:18:54 24° W 05:22:29 46° NNW 05:28:57 10° NE
MOS 1 Rocket 4.4 05:19:05 10° NNE 05:23:49 50° E 05:28:47 10° S
Cosmos 2297 Rocket 2.8 05:24:59 24° W 05:27:44 38° NW 05:33:02 10° NNE
Okean 2 4.0 05:28:29 26° WSW 05:29:56 34° WNW 05:33:45 10° N
Cosmos 2233 Rocket 4.2 05:25:44 10° N 05:32:02 77° E 05:38:15 10° SSE
Lacrosse 5 2.4 05:30:38 22° W 05:33:42 48° NNW 05:38:37 10° ENE
Cosmos 1812 Rocket 3.5 05:30:27 10° NNW 05:34:54 73° W 05:39:21 10° S
DNEPR-1 R/B 3.9 05:30:46 10° NW 05:36:04 79° NE 05:40:30 10° SE
AVUM R/B 2.4 05:36:45 37° WNW 05:37:22 51° WSW 05:39:36 10° SSE
COBE Rocket 4.2 05:33:37 10° NNE 05:38:23 66° E 05:43:02 10° S
Cosmos 1346 Rocket 4.0 05:38:47 22° W 05:39:45 24° WNW 05:43:04 10° NNW
SeaSat 1 4.0 05:39:05 10° ESE 05:43:35 37° NE 05:48:08 10° NNW
Cosmos 468 4.5 05:39:27 10° NNW 05:44:37 61° WSW 05:49:46 10° S
Cosmos 1943 3.1 05:39:39 10° NNW 05:45:19 80° WSW 05:50:56 10° SSE
ATLAS 2AS CENTAUR R/B 4.4 05:38:31 10° WNW 05:45:31 31° N 05:52:31 10° ENE
ADEOS II 2.0 05:41:36 10° NNE 05:46:53 75° WNW 05:52:08 10° SSW
Cosmos 1725 Rocket 4.1 05:45:27 10° NNW 05:51:33 53° W 05:57:34 10° SSW
Cosmos 1603 4.3 05:47:58 10° NW 05:53:07 35° WSW 05:58:13 10° S
Genesis I 3.2 05:50:22 10° SW 05:54:20 84° NW 05:58:21 10° NE
RESURS DK-1 4.2 05:55:13 13° WNW 05:57:12 17° NW 05:59:59 10° N
Cosmos 990 Rocket 4.1 05:52:17 10° SW 05:57:28 57° WNW 06:02:39 10° NNE
Meteor 1-22 Rocket 4.2 05:52:08 10° NNW 05:57:39 80° W 06:03:22 10° S
Tiangong 1 3.2 05:56:35 11° SW 05:57:45 13° SSW 05:59:19 10° SSE
Cosmos 2263 Rocket 3.6 05:53:32 10° S 05:58:42 41° ESE 06:03:54 10° NE
Cosmos 1766 3.3 05:59:11 10° N 06:03:14 88° E 06:07:14 10° S
Cosmos 1048 Rocket 3.9 05:58:33 10° NNW 06:03:39 63° WSW 06:08:41 10° S
Ariane Rocket 4.1 05:58:55 10° NNE 06:03:54 50° E 06:08:51 10° S
Cosmos 1515 4.2 06:03:38 10° SW 06:07:12 37° WNW 06:10:48 10° N
Meteor 1-31 Rocket 2.7 06:03:49 10° N 06:07:43 72° WNW 06:11:39 10° SSW
Intercosmos 25 Rocket 3.7 06:05:13 10° NNW 06:08:41 49° W 06:13:38 10° S
Cosmos 1269 Rocket 4.2 06:05:24 10° NNW 06:10:29 49° WSW 06:15:33 10° S
Cosmos 158 Rocket 3.9 06:06:56 10° NNW 06:12:00 83° WSW 06:17:11 10° SSE
COSMO-SKYMED 1 2.5 06:08:49 10° S 06:13:09 76° WSW 06:17:31 10° NNW
Cosmos 1825 Rocket 3.6 06:09:07 10° S 06:13:31 90° NNE 06:17:54 10° N
Cosmos 1340 2.7 06:09:55 10° SSW 06:13:40 61° WNW 06:17:28 10° N
ADEOS Rocket 3.7 06:06:58 10° N 06:13:42 44° WNW 06:19:47 10° SW
COSMOS 2406 4.2 06:08:33 10° NNW 06:14:04 49° NE 06:19:34 10° SE
Okean-O 3.1 06:10:04 10° N 06:14:16 42° WNW 06:18:26 10° SW
Meteor PRIRODA 4.3 06:13:29 10° N 06:16:57 36° WNW 06:20:22 10° SW
Cosmos 372 Rocket 4.3 06:19:26 10° SSW 06:24:31 73° ESE 06:29:40 10° NNE
CZ-4B R/B 4.3 06:20:46 10° N 06:25:04 25° WNW 06:29:26 10° WSW
CENTAUR R/B 4.2 06:22:09 10° WNW 06:27:38 21° WSW 06:33:20 10° SSW
Cosmos 1805 3.5 06:23:58 10° N 06:27:56 78° E 06:31:52 10° SSE
Lacrosse 5 rocket 2.5 06:25:56 10° NW 06:30:12 40° NNE 06:34:14 10° E
